#timestamp,LO_Frequency,Hit,StdDev 
1681970415.4,286046999.7,P
1681970435.2,286047002.8,P
1681970455.1,286047001.5,N
1681970456.0,286047001.5,N
1681970475.8,286047004.0,Y
1681970495.6,286047000.9,P
1681970515.5,286047000.2,N
1681970535.3,286046998.8,N
1681970555.2,286046998.9,N
1681970575.9,286046998.4,N
1681970595.7,286047000.5,N
1681970615.6,286047000.8,N
1681970635.4,286047001.5,N
1681970655.2,286047000.4,N
1681970675.1,286047000.5,N
1681970676.0,286047000.5,N
1681970695.8,286047001.2,N
1681970715.7,286047000.9,N
1681970735.5,286046998.2,N
1681970755.3,286046998.1,N
1681970775.2,286046999.0,N
1681970795.9,286047000.7,N
1681970815.7,286046999.0,N
1681970835.6,286047000.3,N
1681970855.4,286046998.1,N
1681970875.2,286047002.6,N
1681970895.1,286046998.1,N
1681970896.0,286046998.1,N
1681970915.8,286047001.2,N
1681970935.7,286046999.0,N
1681970955.5,286047000.3,N
1681970975.3,286047002.0,N
1681970995.2,286047000.9,N
1681971015.0,286047000.8,N
1681971015.9,286047000.8,N
1681971035.8,286047000.9,N
1681971055.6,286047000.2,N
1681971075.4,286047002.7,N
1681971095.3,286047000.1,N
1681971115.1,286047001.6,N
1681971116.0,286047001.6,N
1681971135.8,286047001.7,N
1681971155.7,286047003.6,N
1681971175.5,286047001.6,N
1681971195.3,286047001.3,N
1681971215.2,286047001.6,N
1681971235.0,286047002.0,N
1681971235.9,286047002.0,N
1681971255.8,286047002.4,N
1681971275.6,286047001.9,N
1681971295.4,286047002.0,N
1681971315.3,286047001.9,N
1681971335.1,286047002.4,N
1681971355.8,286047001.7,N
1681971375.7,286047002.1,N
1681971395.5,286047001.4,N
1681971415.4,286047004.4,Y
1681971435.2,286047001.6,P
1681971455.0,286047002.2,P
1681971455.9,286047002.2,P
1681971475.8,286047001.7,Y
1681971495.6,286047001.1,P
1681971515.5,286047001.1,N
1681971535.3,286046999.2,N
1681971555.1,286046997.0,Y
1681971575.9,286046997.3,P
1681971595.7,286046996.7,N
1681971615.5,286046997.6,N
1681971635.4,286046997.7,N
1681971655.2,286046998.0,N
1681971675.1,286046995.0,Y
1681971676.0,286046995.0,P
1681971695.8,286047001.2,N
1681971715.6,286047000.3,N
1681971735.5,286047000.3,N
1681971755.3,286047000.9,N
1681971775.1,286047002.8,N
1681971795.9,286047000.3,N
1681971815.7,286047000.4,N
1681971835.6,286046999.9,N
1681971855.4,286047000.3,N
1681971875.2,286046998.6,N
1681971895.1,286046998.7,N
1681971896.0,286046998.7,N
1681971915.8,286046998.6,N
1681971935.6,286046998.1,N
1681971955.5,286046998.4,N
1681971975.3,286046998.2,N
1681971995.1,286047000.9,N
1681972015.9,286047000.1,N
1681972035.7,286047002.2,N
1681972055.6,286047002.6,N
1681972075.4,286047002.0,N
1681972095.2,286047002.2,N
1681972115.1,286047000.6,N
1681972116.0,286047000.6,N
1681972135.8,286046998.7,N
1681972155.6,286046996.7,N
1681972175.5,286046999.0,N
1681972195.3,286047000.9,N
1681972215.2,286046999.2,N
1681972235.9,286046999.0,N
1681972255.7,286046998.3,N
1681972275.6,286046998.5,N
1681972295.4,286046998.1,N
1681972315.2,286046998.5,N
1681972335.1,286046998.3,N
1681972336.0,286046998.3,N
1681972355.8,286046998.7,N
1681972375.7,286046999.1,N
1681972395.5,286046998.6,N
1681972415.3,286046999.1,N
1681972435.2,286047001.2,N
1681972455.9,286047001.1,N
1681972475.7,286046998.4,N
1681972495.6,286046999.9,N
1681972515.4,286047001.4,N
1681972535.3,286047002.3,N
1681972555.1,286047001.7,N
1681972556.0,286047001.7,N
1681972575.8,286047003.1,N
1681972595.7,286047003.5,N
1681972615.5,286047001.9,N
1681972635.3,286047001.7,N
1681972655.2,286047001.6,N
1681972675.0,286047001.8,N
1681972675.9,286047001.8,N
1681972695.8,286047001.0,N
1681972715.6,286047000.5,N
1681972735.4,286047002.1,N
1681972755.3,286047002.1,N
1681972775.1,286047002.3,N
1681972776.0,286047002.3,N
1681972795.8,286047002.5,N
1681972815.7,286047001.6,N
1681972835.5,286047001.9,N
1681972855.3,286047001.9,N
1681972875.2,286047004.3,Y
1681972895.0,286047002.3,P
1681972895.9,286047002.3,P
1681972915.8,286047000.0,N
1681972935.6,286047000.0,N
1681972955.4,286047000.9,N
1681972975.3,286046998.1,N
1681972995.1,286046998.3,N
1681973015.9,286046998.8,N
1681973035.7,286046998.9,N
1681973055.5,286046998.8,N
1681973075.4,286046998.6,N
1681973095.2,286046999.0,N
1681973115.0,286047001.1,N
1681973115.9,286047001.1,N
1681973135.8,286047000.7,N
1681973155.6,286047000.1,N
1681973175.4,286047001.0,N
1681973195.3,286047000.5,N
1681973215.1,286046999.8,N
1681973235.9,286046999.9,N
1681973255.7,286047000.3,N
1681973275.5,286047002.8,N
1681973295.4,286046999.7,N
1681973315.2,286047002.7,N
1681973335.0,286047000.9,N
1681973335.9,286047000.9,N
1681973355.8,286047002.6,N
1681973375.6,286047000.1,N
1681973395.5,286047002.6,N
1681973415.3,286046999.9,N
1681973435.1,286047001.7,N
1681973455.9,286047000.1,N
1681973475.7,286047002.3,N
1681973495.5,286047002.1,N
1681973515.4,286047002.6,N
1681973535.2,286047001.6,N
1681973555.1,286047002.6,N
1681973556.0,286047002.6,N
1681973575.8,286047001.9,N
1681973595.6,286047001.7,N
1681973615.5,286047002.7,N
1681973635.3,286047002.4,N
1681973655.1,286047002.3,N
1681973675.9,286047000.2,N
1681973695.7,286047002.7,N
1681973715.6,286047004.3,Y
1681973735.4,286047002.3,P
1681973755.2,286047002.0,P
1681973775.1,286047002.3,P
1681973776.0,286047002.3,Y
1681973795.8,286047000.4,P
1681973815.6,286046998.2,N
1681973835.5,286047000.6,N
1681973855.3,286047000.6,N
1681973875.2,286047000.5,N
1681973895.9,286047000.5,N
1681973915.7,286047000.7,N
1681973935.6,286047000.3,N
1681973955.4,286047000.0,N
1681973975.2,286047001.1,N
1681973995.1,286047002.7,Y
1681973996.0,286047002.7,P
